| time (UTC) | temp C | wind direction | speed KPH | gust KPH | rain 1hr cm | rain 24hr cm | rain mn cm | humidity % | barometer mb |
| 20260507023044 | 10 | 48 | 4.8 | 12.9 | 0.00 | 2.39 | 0.08 | 71 | 1003.7 |
| 20260507021538 | 10 | 36 | 8.0 | 11.3 | 0.03 | 2.39 | 0.08 | 70 | 1003.7 |
| 20260507020145 | 10 | 9 | 4.8 | 6.4 | 0.03 | 2.39 | 0.08 | 70 | 1003.9 |
| 20260507014533 | 10 | 325 | 1.6 | 4.8 | 0.03 | 2.39 | 0.08 | 70 | 1003.9 |
| 20260507013056 | 10 | 32 | 4.8 | 12.9 | 0.05 | 2.39 | 0.05 | 70 | 1003.6 |
| 20260507011558 | 10 | 348 | 6.4 | 12.9 | 0.05 | 2.39 | 0.05 | 70 | 1003.6 |
| 20260507010044 | 10 | 32 | 8.0 | 11.3 | 0.05 | 2.39 | 0.05 | 70 | 1003.5 |
| 20260507004615 | 10 | 15 | 3.2 | 4.8 | 0.05 | 2.39 | 0.05 | 70 | 1003.5 |
| 20260507003153 | 10 | 38 | 0.0 | 4.8 | 0.03 | 2.36 | 0.03 | 70 | 1003.5 |
| 20260507001525 | 10 | 20 | 0.0 | 4.8 | 0.03 | 2.36 | 0.03 | 70 | 1003.5 |
| 20260507000020 | 10 | 29 | 3.2 | 9.7 | 0.03 | 2.36 | 0.03 | 70 | 1003.4 |
| 20260506234538 | 10 | 22 | 4.8 | 12.9 | 0.00 | 2.34 | 0.00 | 71 | 1003.5 |
| 20260506231602 | 10 | 11 | 6.4 | 11.3 | 0.00 | 2.34 | 0.00 | 70 | 1003.4 |
| 20260506231514 | 10 | 7 | 6.4 | 14.5 | 0.00 | 2.34 | 0.00 | 70 | 1003.4 |
| 20260506230059 | 10 | 353 | 8.0 | 12.9 | 0.00 | 2.34 | 0.00 | 70 | 1003.1 |
| 20260506224556 | 10 | 21 | 6.4 | 11.3 | 0.00 | 2.34 | 0.00 | 70 | 1003.2 |
| 20260506223021 | 10 | 40 | 6.4 | 12.9 | 0.00 | 2.34 | 0.00 | 70 | 1003.0 |
| 20260506221552 | 10 | 24 | 6.4 | 14.5 | 0.00 | 2.34 | 0.00 | 70 | 1003.1 |
| 20260506220049 | 10 | 18 | 8.0 | 14.5 | 0.00 | 2.34 | 0.00 | 70 | 1003.1 |
| 20260506213041 | 10 | 9 | 4.8 | 9.7 | 0.00 | 2.34 | 2.34 | 70 | 1003.0 |
| 20260506211539 | 10 | 7 | 0.0 | 6.4 | 0.00 | 2.34 | 2.34 | 70 | 1003.0 |
| 20260506211508 | 10 | 7 | 0.0 | 6.4 | 0.00 | 2.34 | 2.34 | 70 | 1002.9 |
| 20260506210041 | 10 | 38 | 4.8 | 9.7 | 0.00 | 2.34 | 2.34 | 70 | 1002.8 |
| 20260506204525 | 10 | 1 | 4.8 | 9.7 | 0.00 | 2.36 | 2.34 | 70 | 1002.7 |
| 20260506201559 | 10 | 14 | 8.0 | 12.9 | 0.00 | 2.36 | 2.34 | 71 | 1002.6 |
| 20260506200033 | 10 | 34 | 3.2 | 4.8 | 0.00 | 2.36 | 2.34 | 71 | 1002.5 |
| 20260506193145 | 10 | 56 | 3.2 | 6.4 | 0.03 | 2.39 | 2.34 | 70 | 1002.0 |
| 20260506191606 | 10 | 7 | 4.8 | 11.3 | 0.23 | 2.39 | 2.34 | 70 | 1001.7 |
| 20260506190052 | 10 | 7 | 6.4 | 22.5 | 0.28 | 2.39 | 2.34 | 70 | 1001.4 |
| 20260506184551 | 10 | 71 | 17.7 | 27.4 | 0.28 | 2.39 | 2.34 | 70 | 1000.5 |
| 20260506183021 | 11 | 22 | 12.9 | 17.7 | 0.23 | 2.36 | 2.31 | 70 | 1001.5 |
| 20260506181544 | 11 | 298 | 14.5 | 29.0 | 0.05 | 2.18 | 2.11 | 70 | 1002.2 |
| 20260506180044 | 11 | 279 | 8.0 | 11.3 | 0.00 | 2.11 | 2.06 | 69 | 1001.2 |
| 20260506174539 | 12 | 357 | 0.0 | 0.0 | 0.00 | 2.11 | 2.06 | 70 | 1000.6 |
| 20260506173033 | 12 | 357 | 0.0 | 4.8 | 0.00 | 2.11 | 2.06 | 70 | 1000.3 |
| 20260506171554 | 12 | 27 | 3.2 | 6.4 | 0.00 | 2.11 | 2.06 | 70 | 1000.0 |
| 20260506170023 | 12 | 81 | 1.6 | 4.8 | 0.00 | 2.11 | 2.06 | 69 | 999.9 |
| 20260506164511 | 12 | 96 | 1.6 | 4.8 | 0.00 | 2.18 | 2.06 | 69 | 1000.0 |
| 20260506163008 | 12 | 58 | 1.6 | 9.7 | 0.00 | 2.18 | 2.06 | 70 | 1000.0 |
| 20260506161509 | 12 | 360 | 9.7 | 16.1 | 0.00 | 2.18 | 2.06 | 70 | 999.4 |
| 20260506160103 | 12 | 28 | 12.9 | 20.9 | 0.03 | 2.18 | 2.06 | 70 | 998.7 |
| 20260506160004 | 12 | 24 | 14.5 | 20.9 | 0.03 | 2.26 | 2.06 | 70 | 998.7 |
| 20260506154559 | 12 | 38 | 8.0 | 20.9 | 0.15 | 2.26 | 2.06 | 70 | 998.8 |
| 20260506153037 | 12 | 40 | 12.9 | 25.7 | 0.91 | 2.26 | 2.06 | 71 | 999.1 |
| 20260506151639 | 12 | 13 | 14.5 | 20.9 | 0.99 | 2.26 | 2.06 | 73 | 999.2 |
| 20260506150056 | 11 | 33 | 11.3 | 24.1 | 0.99 | 2.24 | 2.03 | 72 | 999.2 |
| 20260506144600 | 11 | 26 | 16.1 | 30.6 | 0.86 | 2.16 | 1.93 | 71 | 999.4 |
| 20260506143029 | 11 | 21 | 19.3 | 25.7 | 0.43 | 1.35 | 1.09 | 69 | 999.8 |
| 20260506141513 | 12 | 23 | 16.1 | 20.9 | 0.38 | 1.30 | 1.07 | 73 | 999.2 |
| 20260506140134 | 13 | 339 | 1.6 | 17.7 | 0.38 | 1.30 | 1.07 | 76 | 999.0 |
| 20260506134631 | 12 | 338 | 14.5 | 20.9 | 0.38 | 1.30 | 1.07 | 75 | 998.8 |
| 20260506133053 | 15 | 229 | 20.9 | 38.6 | 0.00 | 0.91 | 0.69 | 71 | 999.1 |
| 20260506131638 | 15 | 74 | 25.7 | 33.8 | 0.00 | 0.91 | 0.69 | 73 | 998.4 |
| 20260506130028 | 15 | 116 | 17.7 | 24.1 | 0.00 | 0.91 | 0.69 | 72 | 999.1 |
| 20260506124526 | 15 | 101 | 9.7 | 20.9 | 0.05 | 0.91 | 0.69 | 70 | 999.5 |
| 20260506123025 | 15 | 107 | 14.5 | 20.9 | 0.05 | 0.91 | 0.69 | 71 | 999.6 |
| 20260506121527 | 15 | 130 | 17.7 | 32.2 | 0.05 | 0.91 | 0.69 | 74 | 999.6 |
| 20260506120029 | 15 | 111 | 16.1 | 27.4 | 0.05 | 0.91 | 0.69 | 69 | 999.5 |
| 20260506114526 | 15 | 111 | 12.9 | 27.4 | 0.03 | 0.94 | 0.64 | 75 | 999.6 |
| 20260506113022 | 15 | 110 | 19.3 | 33.8 | 0.00 | 0.91 | 0.61 | 75 | 999.7 |
| 20260506111521 | 15 | 116 | 17.7 | 32.2 | 0.00 | 0.91 | 0.61 | 74 | 999.8 |
| 20260506110020 | 15 | 88 | 20.9 | 29.0 | 0.00 | 0.91 | 0.61 | 73 | 1000.0 |
| 20260506104518 | 15 | 107 | 20.9 | 32.2 | 0.00 | 1.02 | 0.61 | 74 | 1000.2 |
| 20260506103018 | 15 | 116 | 12.9 | 29.0 | 0.00 | 1.02 | 0.61 | 72 | 1000.2 |
| 20260506101514 | 14 | 97 | 19.3 | 30.6 | 0.00 | 1.02 | 0.61 | 71 | 1000.2 |
| 20260506100014 | 14 | 116 | 22.5 | 35.4 | 0.00 | 1.02 | 0.61 | 72 | 1000.3 |
| 20260506094511 | 14 | 126 | 17.7 | 29.0 | 0.03 | 1.09 | 0.61 | 70 | 1000.3 |
| 20260506093007 | 12 | 111 | 14.5 | 25.7 | 0.05 | 1.09 | 0.61 | 72 | 1000.3 |
| 20260506091507 | 12 | 217 | 12.9 | 25.7 | 0.18 | 1.09 | 0.61 | 72 | 1000.4 |
| 20260506090006 | 12 | 116 | 16.1 | 41.8 | 0.38 | 1.09 | 0.61 | 72 | 999.7 |
| 20260506084601 | 12 | 103 | 19.3 | 33.8 | 0.43 | 1.09 | 0.61 | 73 | 998.8 |
| 20260506083100 | 12 | 137 | 4.8 | 19.3 | 0.41 | 1.04 | 0.56 | 73 | 1000.3 |
| 20260506081552 | 12 | 130 | 8.0 | 16.1 | 0.30 | 0.94 | 0.46 | 73 | 1000.6 |
| 20260506080106 | 12 | 111 | 9.7 | 20.9 | 0.10 | 0.71 | 0.25 | 72 | 1000.6 |
| 20260506073057 | 12 | 116 | 14.5 | 25.7 | 0.03 | 0.79 | 0.15 | 73 | 1000.6 |
| 20260506071542 | 12 | 157 | 14.5 | 27.4 | 0.03 | 0.79 | 0.15 | 73 | 1000.5 |
| 20260506061532 | 12 | 132 | 6.4 | 16.1 | 0.00 | 1.17 | 0.15 | 73 | 1000.9 |
| 20260506044532 | 11 | 136 | 6.4 | 16.1 | 0.05 | 1.19 | 0.13 | 74 | 1001.4 |
| 20260506043022 | 11 | 165 | 4.8 | 14.5 | 0.05 | 1.19 | 0.13 | 74 | 1001.5 |
| 20260506041517 | 11 | 103 | 4.8 | 16.1 | 0.03 | 1.17 | 0.08 | 73 | 1001.5 |
| 20260506040013 | 11 | 89 | 8.0 | 19.3 | 0.03 | 1.14 | 0.05 | 73 | 1001.7 |
| 20260506034511 | 11 | 146 | 4.8 | 16.1 | 0.03 | 1.14 | 0.05 | 73 | 1001.6 |
| 20260506033009 | 12 | 84 | 4.8 | 12.9 | 0.05 | 1.14 | 0.05 | 74 | 1001.6 |
| 20260506031508 | 12 | 126 | 8.0 | 16.1 | 0.05 | 1.14 | 0.05 | 74 | 1001.6 |
| 20260506030003 | 12 | 107 | 3.2 | 12.9 | 0.03 | 1.12 | 0.05 | 73 | 1002.0 |
| 20260506024615 | 12 | 92 | 3.2 | 9.7 | 0.03 | 1.12 | 0.05 | 73 | 1002.3 |